FREGAT R/B, 59073

Orbit data source: Space-Track

FREGAT R/B, 59073 is space debris in LEO originally from a launch on Thu, 29 Feb 2024 UTC launched from the Vostochny Cosmodrome (VOSTO). Debris objects in space refer to the collection of defunct objects orbiting the Earth. Examples of debris include non-operational satellites, rocket bodies, and fragments generated from explosions, collisions, or faulty payload assembly.

Loading next visibility...
Identifier
59073, 2024-039W
Orbit
LEO
Country
Flag of CISCIS
Related business
Manufacturer
Lavochkin
Mission
Spacecraft
Bus & Motor
FREGAT, Unknown motor
Mass
1,624 kg wet, 1,000 kg dry
Launch date (UTC)
2024-02-29 (2 years ago)
Launch vehicle
Unknown
Launch site
Vostochny Cosmodrome (VOSTO)
Object type
Payload
Rocket body
Debris
Shape & HBR
Cyl, 1.7 m
Radar Cross Section
8.354 m², Large (>1 m²)

Expand to show TLE details & history
Last TLE update: 7 hours ago

TLE from 7 hours ago
0 FREGAT R/B
1 59073U 24039W   26124.18422742  .00000202  00000-0  48946-4 0  9996
2 59073  88.9839 289.2676 0036593  98.6452 261.8902 14.48611038115035
Epoch: 2026-05-04T04:25Z
TLE epoch observation values (Epoch: 2026-05-04T04:25:17.249Z)
Latitude
-0.00003°
Longitude
0.86866°
Altitude
737.046 km
Speed
7.484 km/s
True Right ascension
19h 17m 04s
True Declination
0° 00' 00"
Sunlit
Object was in daylight at epoch
Visualization orbit readout
Latitude
Unknown
Longitude
Unknown
Altitude
Unknown
Speed
Unknown
Apparent Right ascension
Unknown
Apparent Declination
Unknown
Sunlit
N/A
Visualization observer readout
Local Sidereal Time
19:40:18
Azimuth
Unknown
Elevation
Unknown
Doppler factor
Unknown
Orbital elements
Apogee altitude
753.099 km
Perigee altitude
701.099 km
Semi-major axis
7,105.236 km
Eccentricity
0.00366
Inclination
88.9839°
RAAN
289.2676°
Arg. of periapsis
98.6452°
True anomaly
261.47534°
Mean anomaly
261.8902°
Eccentric anomaly
261.68274°
Mean motion
3.62389 °/min
Orbital period
99.34 mins
BSTAR
0.000048946
Loading maneuver chart data...
Computing Atmospheric mass density...
Loading historical data...
Loading historical data...
Loading historical data...
Loading historical data...
Loading historical data...
Loading historical data...
Loading historical data...

Documentation

Showing up to 5 results
|